Retour au catalogue

SL-16 DEB

ActifLEO
NORAD 22409·DEBRIS·🇷🇺 Russia

Lancé Dec 25, 1992 depuis Baikonur Cosmodrome

Loading…

Prochains Passages (prochaines 24 heures)

TLE

FraisSource: Space-Track

Époque: Sep 14, 2026, 04:12 UTC

1 22409U 92093DA  26257.17516806  .00000618  00000-0  12415-3 0  9997
2 22409  71.1319 319.3675 0114794 178.5814 213.2956 14.61881540761746

Suivez SL-16 DEB en temps réel avec AllMySat

Download on the App Store